�N����,����,�~����,�C��,���x,�C��,����,���ϕ���,�ő�u�ԕ���,�ő厞����,���˗�,�I�_���x,�n�����x,�ő啗���N��,DTYPE
"18/05/30","00:10",0.0,19.8,81.7,1007.8,306.6,0.8,1.4,321.9,0.00,16.6,20.5,"00:04:32",1
"18/05/30","00:20",0.0,19.4,83.1,1007.8,285.0,0.7,1.0,330.5,0.00,16.5,20.5,"00:18:56",1
"18/05/30","00:30",0.0,19.3,83.8,1008.1,304.6,1.1,1.7,326.6,0.00,16.5,20.3,"00:28:40",1
"18/05/30","00:40",0.0,19.2,84.5,1007.8,304.6,1.1,1.7,319.3,0.00,16.6,20.3,"00:34:56",1
"18/05/30","00:50",0.0,19.1,85.1,1007.8,304.2,0.6,1.1,277.7,0.00,16.6,20.3,"00:45:28",1
"18/05/30","01:00",0.0,18.9,85.2,1008.3,305.1,0.6,1.1,311.3,0.00,16.4,20.2,"00:52:00",1
"18/05/30","01:10",0.0,18.7,86.5,1007.8,298.6,0.8,1.2,313.6,0.00,16.4,20.2,"01:08:00",1
"18/05/30","01:20",0.0,18.7,87.1,1007.8,280.5,0.8,1.6,322.5,0.00,16.6,20.2,"01:18:24",1
"18/05/30","01:30",0.0,18.8,87.1,1007.8,295.9,1.1,1.7,304.6,0.00,16.6,20.0,"01:29:36",1
"18/05/30","01:40",0.0,19.0,86.7,1007.8,296.7,1.0,1.6,315.1,0.00,16.8,20.2,"01:33:04",1
"18/05/30","01:50",0.0,18.9,86.4,1007.8,291.7,0.6,1.1,314.0,0.00,16.6,20.0,"01:42:24",1
"18/05/30","02:00",0.0,18.8,87.2,1007.4,286.8,0.8,1.4,274.4,0.00,16.7,20.0,"01:57:04",1
"18/05/30","02:10",0.0,18.9,86.8,1007.6,306.6,1.2,1.8,322.6,0.00,16.7,19.9,"02:04:56",1
"18/05/30","02:20",0.0,19.0,86.6,1007.8,309.3,1.1,1.8,309.7,0.00,16.8,20.0,"02:17:04",1
"18/05/30","02:30",0.0,19.1,86.5,1008.1,304.0,0.7,1.4,315.2,0.00,16.8,20.0,"02:22:08",1
"18/05/30","02:40",0.0,19.2,86.2,1008.1,304.9,0.6,0.9,284.0,0.00,16.9,19.8,"02:32:32",1
"18/05/30","02:50",0.0,19.1,86.4,1007.6,292.2,0.7,0.9,273.9,0.00,16.8,20.0,"02:40:56",1
"18/05/30","03:00",0.0,19.2,86.4,1007.8,308.2,0.6,1.1,316.4,0.00,16.9,19.8,"02:56:16",1
"18/05/30","03:10",0.0,19.2,86.3,1007.8,291.3,0.3,0.6,265.1,0.00,16.9,19.8,"03:05:44",1
"18/05/30","03:20",0.0,19.1,86.3,1007.1,298.8,0.8,1.1,307.4,0.00,16.8,19.9,"03:11:36",1
"18/05/30","03:30",0.0,19.2,86.3,1007.4,283.2,0.7,1.0,276.1,0.00,16.9,19.8,"03:24:32",1
"18/05/30","03:40",0.0,19.4,85.9,1007.4,299.7,1.0,1.4,320.3,0.00,17.0,19.9,"03:38:24",1
"18/05/30","03:50",0.0,19.4,85.4,1007.4,308.4,1.0,1.7,322.2,0.00,16.9,19.8,"03:44:16",1
"18/05/30","04:00",0.0,19.4,85.4,1007.6,297.8,1.0,1.3,314.1,0.00,16.9,19.7,"03:58:56",1
"18/05/30","04:10",0.0,19.5,85.7,1007.6,280.2,0.6,1.1,311.2,0.00,17.1,19.8,"04:00:08",1
"18/05/30","04:20",0.0,19.6,85.3,1007.6,295.0,1.1,1.7,326.7,0.00,17.1,19.8,"04:17:04",1
"18/05/30","04:30",0.0,19.6,85.0,1007.6,297.2,1.0,1.3,309.0,0.00,17.1,19.8,"04:23:44",1
"18/05/30","04:40",0.0,19.7,85.1,1007.8,321.3,1.0,1.7,339.1,0.00,17.2,19.7,"04:39:44",1
"18/05/30","04:50",0.0,19.8,85.2,1007.6,330.3,1.2,1.6,343.4,0.00,17.3,19.8,"04:40:24",1
"18/05/30","05:00",0.0,19.6,85.8,1007.6,320.2,1.1,1.7,332.2,0.00,17.2,19.9,"04:51:36",1
"18/05/30","05:10",0.0,19.5,86.4,1007.6,268.9,0.7,1.1,240.5,0.00,17.2,19.8,"05:04:56",1
"18/05/30","05:20",0.0,19.6,86.4,1007.6,293.9,0.8,1.4,316.4,0.00,17.3,19.8,"05:10:48",1
"18/05/30","05:30",0.0,19.6,86.5,1007.8,295.0,0.6,0.8,324.0,0.00,17.3,19.8,"05:28:00",1
"18/05/30","05:40",0.0,19.7,86.9,1007.8,294.5,0.6,1.0,285.6,0.00,17.5,19.7,"05:36:56",1
"18/05/30","05:50",0.0,19.6,87.5,1008.1,252.4,0.8,1.4,241.3,0.00,17.5,19.6,"05:48:32",1
"18/05/30","06:00",0.0,19.9,86.9,1007.8,315.3,0.7,1.4,343.1,0.00,17.7,19.9,"05:50:02",1
"18/05/30","06:10",0.0,19.9,86.9,1007.8,331.7,1.2,1.8,329.3,0.00,17.7,19.8,"06:09:12",1
"18/05/30","06:20",0.0,19.8,87.6,1008.3,328.7,0.7,1.8,335.7,0.00,17.7,19.8,"06:11:36",1
"18/05/30","06:30",0.0,19.9,88.1,1008.6,322.8,1.1,1.8,319.4,0.00,17.9,19.8,"06:26:56",1
"18/05/30","06:40",0.2,19.7,89.1,1008.8,296.7,0.6,1.3,314.4,0.00,17.9,19.7,"06:32:24",1
"18/05/30","06:50",0.0,19.6,90.0,1008.8,311.7,1.1,1.9,326.0,0.00,18.0,19.8,"06:44:40",1
"18/05/30","07:00",0.0,19.6,90.7,1008.6,310.2,0.6,1.4,327.2,0.00,18.1,19.7,"06:59:20",1
"18/05/30","07:10",0.2,19.6,91.0,1008.6,314.0,1.5,2.0,329.1,0.00,18.1,19.7,"07:05:28",1
"18/05/30","07:20",0.4,19.5,91.5,1008.6,293.6,1.0,1.9,318.1,0.00,18.1,19.7,"07:15:28",1
"18/05/30","07:30",0.0,19.5,92.0,1008.3,262.4,0.7,1.2,230.8,0.01,18.2,19.9,"07:28:16",1
"18/05/30","07:40",0.2,19.5,92.6,1008.8,281.6,0.7,1.4,289.2,0.02,18.3,19.9,"07:30:08",1
"18/05/30","07:50",0.0,19.6,92.5,1008.6,271.2,0.7,1.4,267.0,0.02,18.4,19.9,"07:46:32",1
"18/05/30","08:00",0.2,19.6,92.6,1008.6,276.9,0.7,1.2,266.3,0.02,18.4,19.6,"07:50:08",1
"18/05/30","08:10",0.4,19.8,93.0,1008.8,279.6,0.6,0.8,275.8,0.03,18.7,19.8,"08:00:24",1
"18/05/30","08:20",0.4,19.7,92.9,1008.8,285.6,0.8,1.6,310.7,0.04,18.6,19.7,"08:19:12",1
"18/05/30","08:30",0.4,19.7,93.0,1008.6,312.0,1.1,2.0,336.1,0.03,18.6,20.0,"08:28:08",1
"18/05/30","08:40",0.4,19.8,93.4,1008.8,304.1,1.0,1.4,320.5,0.03,18.7,19.8,"08:30:40",1
"18/05/30","08:50",0.2,19.9,93.2,1008.6,282.6,0.7,1.2,315.7,0.03,18.8,20.0,"08:46:00",1
"18/05/30","09:00",0.2,19.9,93.5,1008.6,267.8,0.6,1.0,266.8,0.03,18.9,19.9,"08:58:00",1
"18/05/30","09:10",0.2,19.9,93.7,1008.8,268.8,0.5,0.8,292.2,0.04,18.9,20.1,"09:08:08",1
"18/05/30","09:20",0.2,20.0,93.0,1008.6,283.3,0.6,0.8,275.7,0.06,18.9,19.7,"09:10:40",1
"18/05/30","09:30",0.2,20.2,93.7,1008.3,271.7,0.8,1.3,302.4,0.06,19.2,19.9,"09:29:04",1
"18/05/30","09:40",0.2,20.2,93.6,1008.6,295.8,0.7,1.3,311.7,0.05,19.2,19.9,"09:36:24",1
"18/05/30","09:50",0.0,20.0,93.5,1008.3,302.6,1.0,1.7,329.2,0.04,19.0,20.0,"09:48:24",1
"18/05/30","10:00",0.2,19.9,93.7,1008.6,337.6,0.5,1.4,333.3,0.02,18.9,20.1,"09:50:08",1
"18/05/30","10:10",0.0,19.6,93.3,1008.3,359.2,0.7,1.4,332.5,0.02,18.5,20.1,"10:01:28",1
"18/05/30","10:20",0.8,19.7,93.1,1008.6,36.9,0.5,1.7,355.0,0.04,18.6,20.3,"10:12:48",1
"18/05/30","10:30",0.2,19.7,92.7,1008.8,352.2,0.3,1.6,348.2,0.03,18.5,20.1,"10:28:32",1
"18/05/30","10:40",0.0,19.7,93.0,1008.8,38.3,0.7,1.7,9.4,0.07,18.6,20.1,"10:32:56",1
"18/05/30","10:50",1.0,20.0,92.7,1008.8,31.1,0.3,1.1,54.6,0.08,18.8,20.2,"10:45:12",1
"18/05/30","11:00",0.2,19.9,92.5,1008.3,341.7,0.7,1.9,340.8,0.06,18.7,20.2,"10:56:32",1
"18/05/30","11:10",0.2,20.0,92.8,1008.8,286.2,0.7,2.1,331.4,0.04,18.8,20.1,"11:02:00",1
"18/05/30","11:20",0.4,20.0,92.5,1008.6,257.5,0.3,1.0,231.3,0.05,18.8,20.2,"11:13:36",1
"18/05/30","11:30",0.4,20.0,91.8,1007.8,179.7,0.2,0.8,132.1,0.08,18.7,20.3,"11:26:08",1
"18/05/30","11:40",0.2,20.1,92.8,1007.8,170.3,0.3,1.0,163.5,0.09,18.9,20.3,"11:36:00",1
"18/05/30","11:50",0.4,20.1,91.7,1007.8,30.9,0.6,2.4,2.9,0.08,18.7,20.3,"11:49:12",1
"18/05/30","12:00",0.2,20.0,91.5,1007.8,97.5,0.8,2.0,339.6,0.06,18.6,20.2,"11:57:36",1
"18/05/30","12:10",0.0,20.2,91.6,1008.1,30.1,0.6,1.8,56.5,0.08,18.8,20.4,"12:00:16",1
"18/05/30","12:20",0.2,20.4,91.5,1008.1,118.7,0.6,2.0,133.5,0.08,19.0,20.1,"12:18:24",1
"18/05/30","12:30",0.2,20.4,90.6,1008.1,80.3,0.5,1.4,43.9,0.08,18.9,20.3,"12:20:40",1
"18/05/30","12:40",0.2,20.3,90.6,1007.8,80.4,0.6,1.8,118.2,0.09,18.8,20.4,"12:31:12",1
"18/05/30","12:50",0.2,20.3,90.1,1007.8,71.1,0.6,1.7,84.6,0.07,18.7,20.3,"12:44:24",1
"18/05/30","13:00",0.2,20.2,90.3,1007.8,46.0,0.7,1.7,4.5,0.08,18.6,20.4,"12:55:12",1
"18/05/30","13:10",0.0,20.3,89.3,1007.8,20.1,0.5,1.4,41.3,0.11,18.5,20.4,"13:09:20",1
"18/05/30","13:20",0.0,20.4,89.0,1007.8,26.0,0.7,1.6,32.2,0.08,18.6,20.5,"13:14:08",1
"18/05/30","13:30",0.2,20.5,90.1,1008.1,27.4,0.3,1.4,344.5,0.10,18.9,20.5,"13:24:24",1
"18/05/30","13:40",0.2,20.4,89.4,1008.1,24.4,0.3,1.2,176.2,0.05,18.6,20.5,"13:34:48",1
"18/05/30","13:50",0.0,20.0,89.2,1007.6,51.1,0.6,1.4,101.1,0.04,18.2,20.4,"13:49:04",1
"18/05/30","14:00",0.4,19.7,90.1,1007.6,63.6,0.6,1.3,11.7,0.09,18.1,20.4,"13:52:32",1
"18/05/30","14:10",0.2,20.0,90.5,1007.4,7.3,0.5,2.5,38.4,0.13,18.4,20.5,"14:02:56",1
"18/05/30","14:20",0.2,19.5,89.7,1007.4,81.8,1.0,3.2,82.8,0.14,17.8,20.5,"14:17:28",1
"18/05/30","14:30",0.0,19.5,89.5,1006.7,49.1,1.5,3.5,97.2,0.11,17.8,20.4,"14:24:48",1
"18/05/30","14:40",0.0,19.7,88.8,1006.9,70.8,0.8,3.1,106.2,0.09,17.8,20.6,"14:30:32",1
"18/05/30","14:50",0.0,19.8,88.6,1006.7,62.5,1.2,4.5,125.1,0.11,17.9,20.4,"14:45:44",1
"18/05/30","15:00",0.0,19.8,87.1,1006.7,69.5,1.2,3.5,39.9,0.14,17.6,20.5,"14:51:28",1
"18/05/30","15:10",0.0,20.0,87.5,1006.4,123.0,1.0,2.0,349.2,0.10,17.9,20.5,"15:03:36",1
"18/05/30","15:20",0.0,19.7,87.3,1006.4,67.9,1.0,3.2,115.9,0.08,17.6,20.4,"15:17:36",1
"18/05/30","15:30",0.0,19.7,87.3,1006.4,57.5,0.8,2.8,101.6,0.09,17.6,20.5,"15:27:44",1
"18/05/30","15:40",0.0,19.4,87.8,1006.0,108.2,1.2,2.9,100.3,0.10,17.4,20.4,"15:39:52",1
"18/05/30","15:50",0.0,19.2,88.1,1006.2,114.5,1.0,2.1,98.6,0.06,17.2,20.5,"15:41:04",1
"18/05/30","16:00",0.2,19.1,88.7,1006.0,101.4,0.6,1.4,110.4,0.04,17.2,20.5,"15:54:40",1
"18/05/30","16:10",0.0,19.1,88.9,1006.0,336.0,1.2,2.2,341.0,0.03,17.3,20.4,"16:02:32",1
"18/05/30","16:20",0.2,19.1,88.9,1005.5,7.8,0.3,1.8,340.5,0.06,17.3,20.4,"16:10:16",1
"18/05/30","16:30",0.0,19.4,89.4,1005.5,231.8,0.7,1.7,3.0,0.09,17.7,20.2,"16:29:12",1
"18/05/30","16:40",0.0,19.6,89.4,1005.7,10.5,0.7,2.2,349.6,0.06,17.8,20.6,"16:30:02",1
"18/05/30","16:50",0.0,19.5,89.2,1006.0,345.4,1.0,2.1,344.9,0.06,17.7,20.5,"16:43:28",1
"18/05/30","17:00",0.0,19.5,89.2,1005.2,339.9,0.7,1.6,340.2,0.06,17.7,20.5,"16:51:12",1
"18/05/30","17:10",0.0,19.4,88.5,1005.5,322.1,0.6,1.3,326.7,0.06,17.5,20.6,"17:09:36",1
"18/05/30","17:20",0.0,19.5,88.8,1006.0,301.8,1.0,1.6,322.1,0.03,17.6,20.4,"17:10:16",1
"18/05/30","17:30",0.0,19.6,89.5,1006.0,292.7,0.7,1.3,310.4,0.02,17.9,20.4,"17:20:40",1
"18/05/30","17:40",0.0,19.5,90.2,1005.7,316.1,1.0,1.9,335.8,0.03,17.9,20.4,"17:36:08",1
"18/05/30","17:50",0.0,19.5,90.2,1005.7,319.6,0.5,1.2,313.6,0.03,17.9,20.5,"17:46:56",1
"18/05/30","18:00",0.0,19.5,90.7,1005.5,356.3,0.5,1.2,50.2,0.03,18.0,20.5,"17:53:36",1
"18/05/30","18:10",0.0,19.3,90.6,1005.5,355.7,0.5,1.3,325.0,0.01,17.8,20.2,"18:00:48",1
"18/05/30","18:20",0.0,19.3,90.7,1005.7,318.6,0.8,1.7,323.1,0.00,17.8,20.4,"18:19:28",1
"18/05/30","18:30",0.0,19.2,91.3,1005.7,304.8,1.0,1.8,327.8,0.00,17.8,20.3,"18:27:20",1
"18/05/30","18:40",0.0,19.1,91.3,1005.7,333.4,1.3,2.6,329.8,0.00,17.7,20.4,"18:33:04",1
"18/05/30","18:50",0.0,18.9,91.8,1006.0,335.6,1.0,1.7,326.2,0.00,17.6,20.4,"18:46:40",1
"18/05/30","19:00",0.0,18.7,92.3,1005.7,352.9,0.8,1.6,335.2,0.00,17.5,20.3,"18:59:44",1
"18/05/30","19:10",0.0,18.4,92.6,1006.0,317.1,1.2,2.0,326.8,0.00,17.2,20.1,"19:05:52",1
"18/05/30","19:20",0.0,18.4,93.1,1006.0,297.0,0.8,1.3,318.1,0.00,17.3,20.2,"19:16:16",1
"18/05/30","19:30",0.0,18.2,93.0,1006.2,305.9,1.2,2.1,332.9,0.00,17.1,20.3,"19:27:12",1
"18/05/30","19:40",0.0,18.1,93.5,1005.7,299.2,0.8,1.2,327.0,0.00,17.1,20.1,"19:30:08",1
"18/05/30","19:50",0.0,18.0,93.4,1006.0,286.3,0.7,1.2,317.2,0.00,17.0,20.2,"19:42:00",1
"18/05/30","20:00",0.0,17.8,93.5,1006.0,293.2,1.1,2.1,325.6,0.00,16.8,20.2,"19:58:00",1
"18/05/30","20:10",0.0,17.7,93.9,1006.0,285.4,1.0,1.6,304.4,0.00,16.7,20.0,"20:01:44",1
"18/05/30","20:20",0.0,17.4,93.9,1006.2,312.8,1.0,1.4,326.0,0.00,16.4,20.1,"20:17:04",1
"18/05/30","20:30",0.0,17.2,94.4,1006.0,296.1,0.8,1.3,344.5,0.00,16.3,19.7,"20:20:08",1
"18/05/30","20:40",0.0,17.0,94.7,1005.7,314.6,1.2,1.9,326.2,0.00,16.2,19.7,"20:36:32",1
"18/05/30","20:50",0.0,16.9,94.8,1006.0,312.9,1.0,1.2,331.9,0.00,16.1,19.8,"20:41:28",1
"18/05/30","21:00",0.0,16.6,95.1,1006.2,303.2,1.1,1.4,315.5,0.00,15.9,19.5,"20:55:28",1
"18/05/30","21:10",0.0,16.5,95.3,1006.0,307.7,1.1,1.3,313.9,0.00,15.8,19.8,"21:03:44",1
"18/05/30","21:20",0.0,16.1,95.1,1006.0,280.7,0.7,1.1,321.5,0.00,15.4,19.5,"21:10:32",1
"18/05/30","21:30",0.0,16.1,96.0,1006.2,284.1,0.7,1.1,254.5,0.00,15.5,19.4,"21:26:32",1
"18/05/30","21:40",0.0,16.1,96.1,1006.0,304.1,1.1,1.4,305.1,0.00,15.5,19.5,"21:39:36",1
"18/05/30","21:50",0.0,16.1,96.1,1006.2,321.5,1.1,1.4,328.7,0.00,15.5,19.5,"21:42:40",1
"18/05/30","22:00",0.0,15.9,96.0,1006.0,297.7,1.0,1.3,310.3,0.00,15.3,19.3,"21:55:36",1
"18/05/30","22:10",0.0,15.9,96.3,1006.2,284.1,0.8,1.2,270.6,0.00,15.4,19.3,"22:09:12",1
"18/05/30","22:20",0.0,15.9,96.4,1006.4,288.9,0.8,1.2,316.6,0.00,15.4,19.1,"22:19:20",1
"18/05/30","22:30",0.0,15.9,96.5,1006.2,327.0,1.2,1.8,330.8,0.00,15.4,19.2,"22:21:44",1
"18/05/30","22:40",0.0,15.9,96.5,1006.2,305.2,1.1,1.7,313.0,0.00,15.4,19.2,"22:31:28",1
"18/05/30","22:50",0.0,15.7,96.4,1006.4,299.5,0.6,1.1,312.1,0.00,15.2,19.0,"22:40:02",1
"18/05/30","23:00",0.0,15.6,97.0,1005.7,313.0,0.8,1.4,339.0,0.00,15.2,19.0,"22:57:36",1
"18/05/30","23:10",0.0,15.6,97.0,1005.7,302.3,0.7,1.0,295.2,0.00,15.2,19.0,"23:04:56",1
"18/05/30","23:20",0.0,15.4,97.0,1005.7,302.1,1.0,1.2,309.7,0.00,15.0,18.9,"23:15:28",1
"18/05/30","23:30",0.0,15.5,96.9,1005.5,293.3,0.8,1.2,327.4,0.00,15.1,19.0,"23:26:48",1
"18/05/30","23:40",0.0,15.3,96.9,1005.7,302.1,0.6,1.1,310.6,0.00,14.9,18.8,"23:30:02",1
"18/05/30","23:50",0.0,15.3,97.2,1005.2,319.4,1.0,1.2,314.6,0.00,14.9,18.7,"23:41:52",1
"18/05/30","24:00",0.0,15.1,97.1,1005.0,305.5,0.8,1.1,311.6,0.00,14.7,18.8,"23:56:56",1
